This is the latest recevied weather packets stored in our database for station/object N6DZK. If no packets are shown the sender has not sent any weather packets the latest 10 day(s).
| Time | Temp. | Humidity | Pressure | Rain* | Wind** | Luminosity | Snow |
|---|---|---|---|---|---|---|---|
| 1777993103 | 12.78° C | 74% | 1015.8 hPa | 0 mm | - | 59 W/m² | - |
| 1777992801 | 12.78° C | 74% | 1015.6 hPa | 0 mm | - | 67 W/m² | - |
| 1777992499 | 12.78° C | 74% | 1015.7 hPa | 0 mm | - | 112 W/m² | - |
| 1777992197 | 12.78° C | 75% | 1015.6 hPa | 0 mm | - | 91 W/m² | - |
| 1777991893 | 12.78° C | 74% | 1015.6 hPa | 0 mm | - | 59 W/m² | - |
| 1777991591 | 12.22° C | 75% | 1015.7 hPa | 0 mm | - | 75 W/m² | - |
| 1777991288 | 12.22° C | 75% | 1015.7 hPa | 0 mm | - | 75 W/m² | - |
| 1777990986 | 12.22° C | 74% | 1015.5 hPa | 0 mm | - | 65 W/m² | - |
| 1777990683 | 12.22° C | 75% | 1015.5 hPa | 0 mm | - | 52 W/m² | - |
| 1777990380 | 12.22° C | 74% | 1015.5 hPa | 0 mm | - | 59 W/m² | - |
| 1777990075 | 12.22° C | 75% | 1015.4 hPa | 0 mm | - | 76 W/m² | - |
| 1777989772 | 12.22° C | 75% | 1015.3 hPa | 0 mm | - | 76 W/m² | - |
| 1777989469 | 11.67° C | 76% | 1015.1 hPa | 0 mm | - | 80 W/m² | - |
| 1777989166 | 11.67° C | 77% | 1015.2 hPa | 0 mm | - | 62 W/m² | - |
| 1777988862 | 11.67° C | 77% | 1015 hPa | 0 mm | - | 42 W/m² | - |
| 1777988559 | 11.11° C | 77% | 1015.1 hPa | 0 mm | - | 23 W/m² | - |
| 1777988256 | 11.11° C | 77% | 1015.2 hPa | 0 mm | - | 16 W/m² | - |
| 1777987952 | 11.11° C | 77% | 1014.9 hPa | 0 mm | - | 13 W/m² | - |
| 1777987648 | 11.11° C | 78% | 1014.9 hPa | 0 mm | - | 11 W/m² | - |
| 1777987346 | 11.11° C | 78% | 1014.9 hPa | 0 mm | - | 8 W/m² | - |
| 1777987043 | 11.11° C | 78% | 1015 hPa | 0 mm | - | 5 W/m² | - |
| 1777986740 | 11.11° C | 77% | 1014.9 hPa | 0 mm | - | 3 W/m² | - |
| 1777986438 | 11.11° C | 77% | 1015.1 hPa | 0 mm | - | 2 W/m² | - |
| 1777986136 | 11.11° C | 77% | 1015 hPa | 0 mm | - | 1 W/m² | - |
| 1777985832 | 11.11° C | 76% | 1015 hPa | 0 mm | - | 0 W/m² | - |
* Rain latest hour (hover to see other rain measurements)
** Current wind speed in m/s (hover to see current wind gust speed)